Starlink 2143

operational
NORAD ID: 47733 Int'l Des: 2021-017 Owner: SPXS Country: US Constellation: starlink
LEOCIRCULARSTARLINK_TYPE

关于 Starlink 2143

正在加载描述...

实时位置

正在加载3D地球...

即将过境

高度历史

Altitude vs Time

uPlot chart will show altitude changes over time

两行轨道根数

1 47733U 21017M 25257.37191204 .00003474 00000-0 25193-3 0 9994
2 47733 53.0541 293.1389 0001011 71.6216 288.4883 15.06411221251063
Epoch: Sep 14, 2025 • Age: 28 hours

当前状态

高度 562.7 km
速度 7.58 km/s
星下点 -44.24°S, 36°W
发射日期 Mar 4, 2021
运行时间 4.5 years
类型 internet

技术详情

分类 Payload
质量 260.00 kg
干质量 248.00 kg
总质量 260.00 kg
长度 0.20 m
直径 2.80 m
跨度 9.00 m
形状 Box + pan
制造商 SPXS
平台类型 Starlink
阶段状态 In Orbit
所有者/国家 SPXS/US

大型星座

Loading constellations...